COSMOS 886 DEB

Satellite information

Favourite Embed

Satellite Type and Status

DEBRISIN ORBIT

Key statistics

Satellite COSMOS 886 DEB at a glance.

Uptime

17884

Days in orbit

Revolutions

≈ 12.3

Per day

Orbit

MEO

Medium Earth Orbit

Inclination

65.9

Latest

Satellite identification and parameters

Extended collection of information and parameters for COSMOS 886 DEB.

Object identification

Identified? True

Debris? True

Object name: COSMOS 886 DEB

International designator: 1976-126BQ

Object number (NORAD): 14503

Object ID (CCSDS): 14503

Country: COMMONWEALTH OF INDEPENDENT STATES (CIS)

Current information (Y/N): Y

RCS size: SMALL

Orbital parameters

Period: 116.877 minutes

Inclination: 65.8595 deg

SMA: 7918.566 km

Apoapsis: 2336.668 km

Periapsis: 744.193 km

RAAN: 25.7871 deg

Eccentricy: 0.10055322

Argument of periapsis: 315.4085 deg

Mean anomaly: 37.0113 deg

Mean motion: 12.32063215 rev/day

Mean motion (dot): 0.00000745 rev/day2

B* drag term: 0.0011571025 1/REarth

Two-line elements (TLE)

Creation date: Dec. 14, 2025, 3:07 a.m.

Reference frame: TEME

Reference center: EARTH

Epoch: Dec. 13, 2025, 12:25 p.m. UTC

TLE line 0: 0 COSMOS 886 DEB

TLE line 1: 1 14503U 76126BQ 25347.51792899 .00000745 00000-0 11571-2 0 9999

TLE line 2: 2 14503 65.8595 25.7871 1005532 315.4085 37.0113 12.32063215550533

Live tracking on map

Real-time ground track for satellite COSMOS 886 DEB.

In-orbit conjunctions

A list of the most updated potential collisions computed for object COSMOS 886 DEB.

Target Orbit TCA Probability of collision Miss distance Type
DELTA 1 R/B SSO 2025-11-25 15:44:39 0.0001743008 266.0 (m) ROCKET BODY

Associated space launch

Second generation ASAT satellite

COSMOS 886 DEB was lifted into orbit during the mission ‘Tsiklon-2 | IS-A 4’, on board a Tsiklon-2 space rocket.

The launch took place on Dec. 27, 1976, 12:05 p.m. from 90.

For more information about the launch, click the button.

Launch to space Tsiklon-2 | IS-A 4
Tsiklon-2 | IS-A 4

Agency: N/A

Status: Launch Successful

Launch date: Dec. 27, 1976, 12:05 p.m. UTC

Rocket: Tsiklon-2

Launch pad: 90

Location: Baikonur Cosmodrome, Republic of Kazakhstan

...

Latest news about this satellite

There are no fresh news available about this satellite. Check back as we update our databases every day.


Newsletter sign-up

Weekly statistics, charts and insights to help you stay on top of the space industry.